Location: *
(43.0833°N, 13.0500°E)
Time: 21:15:42
(UTC+00:00)

Feng Yun 1-1 Rocket - Pass Details

Date: 15 November 2019
Orbit: 829 x 934 km, 99.2° (Epoch: 11 December)

Event Time Altitude Azimuth Distance (km) Brightness Sun altitude
Rises 16:04:47 0° 152° (SSE) 3,481 7.3 -4.3°
Reaches altitude 10° 16:07:13 10° 149° (SSE) 2,530 6.6 -4.7°
Maximum altitude 16:12:43 60° 71° (ENE) 984 4.3 -5.6°
Drops below altitude 10° 16:18:07 10° 353° (N) 2,482 6.5 -6.5°
Sets 16:20:30 0° 350° (N) 3,410 7.3 -6.9°
